Погода в Ричардс-Бей

ЮАР     28°45′29″S   32°04′16″E
темп.,
°C
ветер,
м/с
пор.,
м/с
влажн.,
%
обл.,
%
осадки,
мм/ч
давл.,
гПа
погр.,
м
20 января, чт
чт2023:00+21ююз129569 0.8 101937
02:00+21зюз269698 1.3 1018235
05:00+20з22963 0.3 101847
08:00+24ю11770 0.3 1018441
11:00+29вюв32470 0.0 10171479
14:00+29вюв43460 0.0 10151244
17:00+26в45665 0.0 1015824
20:00+22св25875 0.0 1017142
21 января, пт
пт2123:00+20ссз22929 0.0 101833
02:00+19ссз24955 0.0 101683
05:00+19ссз248918 0.0 101775
08:00+25ссв2461100 0.0 1018938
11:00+29вюв435088 0.0 10191501
14:00+28вюв545333 0.0 10191355
17:00+26вюв45607 0.0 10201240
20:00+21юв1175100 0.0 102135
22 января, сб
сб2223:00+22ю1171100 0.0 102239
02:00+22ю1271100 0.1 102244
05:00+21ю127983 0.5 102232
08:00+25юв3463100 0.9 10241109
11:00+28юв555075 0.1 10241930
14:00+27юв5559100 0.4 10241522
17:00+25юв466665 0.4 10231154
20:00+21юв3777100 0.8 1025180
23 января, вс
вс2323:00+23ююв2567100 0.2 1025157
02:00+21ююв248193 0.8 102483
05:00+21ююв22846 0.4 102455
08:00+24ююв247788 0.9 1025464
11:00+27юв445371 0.7 10241723
14:00+27вюв445281 0.8 10221689
17:00+26вюв345756 0.0 10201096
20:00+21всв1274100 0.0 102142
24 января, пн
пн2423:00+20сз22815 0.0 102142
02:00+19сз228440 0.0 101943
05:00+21ссз257689 0.0 1018139
08:00+25с36635 0.0 1018622
11:00+31ссв35455 0.0 10151580
14:00+34всв34365 0.0 10121885
17:00+29св58605 0.0 1012886
20:00+24ссв411775 0.0 1013642